Bellaire, MI

5:00 AM EST on February 22, 2018 (GMT -0500)
Antrim County

Weather History for KACB - November, 2013

Change the Weather History Date:

Friday, November 22, 2013

  Actual Average (KCVX) Record (KCVX)
Temperature  
Mean Temperature 35 °F -  
Max Temperature 40 °F 37 °F 64 °F (2012)
Min Temperature 30 °F 27 °F 19 °F (2001)
Degree Days  
Heating Degree Days 30    
Moisture  
Dew Point 29 °F    
Average Humidity 85    
Maximum Humidity 96    
Minimum Humidity 62    
Precipitation  
Precipitation 0.00 in - - ()
Sea Level Pressure  
Sea Level Pressure 30.27 in    
Wind  
Wind Speed 4 mph (NW)    
Max Wind Speed 10 mph    
Max Gust Speed 21 mph    
Visibility 7 miles    
Events Rain , Snow    
Averages and records for this station are not official NWS values.
T = Trace of Precipitation, MM = Missing Value Source: NWS Daily Summary

Daily Weather History Graph

Daily Weather History Graph

Search for Another Location

Airport or City:

Trip Planner

Search our weather history database for the weather conditions in past years. The results will help you decide how hot, cold, wet, or windy it might be!

Date:

Astronomy

Nov. 22, 2013 Rise Set
Actual Time 7:48 AM EST 5:05 PM EST
Civil Twilight 7:15 AM EST 5:38 PM EST
Nautical Twilight 6:39 AM EST 6:14 PM EST
Astronomical Twilight 6:04 AM EST 6:49 PM EST
Moon 9:40 PM EST 11:28 AM EST
Length of Visible Light 10h 22m
Length of Day
9h 17m
Waning Gibbous, 78% of the Moon is Illuminated
Nov 22
Waning Gibbous
Nov 25
Last Quarter
Dec 2
New
Dec 9
First Quarter
Dec 17
Full

Hourly Weather History & Observations

Time (EST) Temp. Windchill Dew Point Humidity Pressure Visibility Wind Dir Wind Speed Gust Speed Precip Events Conditions
12:15 AM 40.5 °F - 39.2 °F 95% 30.17 in 3.0 mi Calm Calm - N/A Rain Light Rain
12:35 AM 40.1 °F - 39.0 °F 96% 30.16 in 3.0 mi Calm Calm - N/A Rain Light Rain
12:54 AM 40.1 °F - 38.8 °F 95% 30.16 in 2.5 mi Calm Calm - N/A Rain Light Rain
1:15 AM 40.5 °F 38.4 °F 39.2 °F 95% 30.16 in 5.0 mi North 3.5 mph - N/A Rain Light Rain
1:35 AM 40.5 °F 38.4 °F 39.2 °F 95% 30.16 in 5.0 mi North 3.5 mph - N/A Rain Light Rain
1:54 AM 40.1 °F 38.0 °F 38.3 °F 93% 30.16 in 7.0 mi NNW 3.5 mph - N/A Rain Light Rain
2:15 AM 40.1 °F - 37.9 °F 92% 30.17 in 7.0 mi Calm Calm - N/A Rain Light Rain
2:35 AM 40.1 °F - 37.9 °F 92% 30.17 in 5.0 mi Calm Calm - N/A Rain Light Rain
2:54 AM 39.7 °F - 37.8 °F 93% 30.18 in 5.0 mi Calm Calm - N/A Rain Light Rain
3:15 AM 39.6 °F - 37.6 °F 93% 30.18 in 5.0 mi Calm Calm - N/A Rain Light Rain
3:35 AM 38.1 °F 33.7 °F 36.0 °F 92% 30.18 in 4.0 mi NNW 5.8 mph 17.3 mph N/A Rain Light Rain
3:54 AM 36.9 °F 30.7 °F 34.7 °F 92% 30.19 in 5.0 mi NNW 8.1 mph - N/A Rain Light Rain
4:15 AM 36.0 °F 29.0 °F 33.6 °F 91% 30.20 in 7.0 mi NNW 9.2 mph - N/A Rain Light Rain
4:34 AM 35.4 °F 29.0 °F 32.9 °F 91% 30.19 in 5.0 mi North 8.1 mph 16.1 mph N/A   Overcast
4:55 AM 34.7 °F 29.6 °F 32.5 °F 92% 30.20 in 4.0 mi NNW 5.8 mph - N/A Snow Light Snow
5:15 AM 34.2 °F 29.0 °F 32.2 °F 92% 30.20 in 4.0 mi NNW 5.8 mph - N/A Snow Light Snow
5:34 AM 34.2 °F 30.0 °F 32.2 °F 92% 30.21 in 7.0 mi NNW 4.6 mph - N/A Snow Light Snow
5:55 AM 33.8 °F 27.0 °F 32.0 °F 93% 30.22 in 5.0 mi NW 8.1 mph - N/A Snow Light Snow
6:15 AM 33.3 °F 27.1 °F 31.8 °F 94% 30.22 in 3.0 mi NW 6.9 mph - N/A Snow Light Snow
6:34 AM 32.9 °F 25.3 °F 31.6 °F 95% 30.22 in 4.0 mi NNW 9.2 mph - N/A Snow Light Snow
6:55 AM 33.1 °F 26.9 °F 31.1 °F 92% 30.23 in 7.0 mi NNW 6.9 mph - N/A Snow Light Snow
7:15 AM 32.9 °F 26.7 °F 31.1 °F 93% 30.24 in 2.0 mi NNW 6.9 mph - N/A Snow Light Snow
7:34 AM 32.5 °F 27.1 °F 31.1 °F 94% 30.24 in 1.8 mi NNW 5.8 mph - N/A Snow Light Snow
7:55 AM 32.4 °F 25.3 °F 31.1 °F 95% 30.24 in 1.5 mi NW 8.1 mph - N/A Snow Light Snow
8:15 AM 32.2 °F 27.7 °F 30.9 °F 95% 30.26 in 1.0 mi NNW 4.6 mph - N/A Snow Light Snow
8:34 AM 32.0 °F 24.8 °F 30.6 °F 94% 30.26 in 2.0 mi NNW 8.1 mph - N/A Snow Light Snow
8:55 AM 32.0 °F 26.4 °F 30.6 °F 94% 30.26 in 1.0 mi NW 5.8 mph - N/A Snow Light Snow
9:15 AM 32.0 °F 27.5 °F 30.7 °F 95% 30.27 in 1.0 mi NW 4.6 mph - N/A Snow Light Snow
9:35 AM 32.0 °F 26.4 °F 30.7 °F 95% 30.28 in 1.0 mi NW 5.8 mph - N/A Snow Light Snow
9:54 AM 32.0 °F 27.5 °F 30.7 °F 95% 30.29 in 1.2 mi NW 4.6 mph - N/A Snow Light Snow
10:15 AM 32.0 °F 25.6 °F 30.2 °F 93% 30.30 in 0.8 mi NNW 6.9 mph - N/A Snow Light Snow
10:35 AM 32.0 °F 24.2 °F 30.2 °F 93% 30.31 in 1.2 mi NNW 9.2 mph - N/A Snow Light Snow
10:54 AM 32.0 °F 27.5 °F 29.8 °F 92% 30.31 in 1.5 mi NNW 4.6 mph - N/A Snow Light Snow
11:15 AM 32.0 °F 25.6 °F 29.8 °F 92% 30.32 in 3.0 mi NNW 6.9 mph 16.1 mph N/A Snow Light Snow
11:35 AM 32.0 °F 24.8 °F 29.8 °F 92% 30.31 in 1.8 mi NW 8.1 mph - N/A Snow Light Snow
11:54 AM 32.0 °F 26.4 °F 30.2 °F 93% 30.31 in 2.5 mi NW 5.8 mph - N/A Snow Light Snow
12:15 PM 32.0 °F 24.8 °F 29.7 °F 91% 30.31 in 7.0 mi NNW 8.1 mph - N/A   Overcast
12:35 PM 32.5 °F 27.1 °F 29.5 °F 88% 30.31 in 10.0 mi NW 5.8 mph - N/A   Overcast
12:54 PM 32.0 °F 24.2 °F 29.7 °F 91% 30.31 in 1.2 mi NW 9.2 mph - N/A Snow Light Snow
1:15 PM 32.5 °F 24.2 °F 28.2 °F 84% 30.32 in 10.0 mi NW 10.4 mph 20.7 mph N/A   Overcast
1:35 PM 33.1 °F 26.9 °F 27.3 °F 79% 30.31 in 10.0 mi NNW 6.9 mph 18.4 mph N/A   Overcast
1:54 PM 32.4 °F 26.9 °F 25.7 °F 76% 30.32 in 10.0 mi NW 5.8 mph 17.3 mph N/A   Mostly Cloudy
2:15 PM 32.0 °F 26.4 °F 25.3 °F 76% 30.31 in 10.0 mi NW 5.8 mph - N/A   Scattered Clouds
2:34 PM 32.7 °F 26.4 °F 25.5 °F 75% 30.32 in 10.0 mi NNW 6.9 mph - N/A   Mostly Cloudy
2:55 PM 32.2 °F 25.8 °F 25.5 °F 76% 30.32 in 10.0 mi NNW 6.9 mph - N/A   Overcast
3:15 PM 32.0 °F 27.5 °F 25.3 °F 76% 30.32 in 10.0 mi North 4.6 mph - N/A   Overcast
3:34 PM 32.0 °F 26.4 °F 25.3 °F 76% 30.33 in 10.0 mi WNW 5.8 mph - N/A   Overcast
3:55 PM 32.0 °F 25.6 °F 24.3 °F 73% 30.34 in 10.0 mi NW 6.9 mph - N/A   Overcast
4:15 PM 32.0 °F 23.6 °F 24.1 °F 73% 30.34 in 10.0 mi NNW 10.4 mph 16.1 mph N/A   Overcast
4:34 PM 32.0 °F - 24.4 °F 74% 30.35 in 10.0 mi Calm Calm - N/A   Mostly Cloudy
4:55 PM 32.0 °F - 24.4 °F 74% 30.36 in 10.0 mi Calm Calm - N/A   Overcast
5:15 PM 32.0 °F - 24.4 °F 74% 30.36 in 10.0 mi Calm Calm - N/A   Overcast
5:34 PM 32.0 °F - 24.8 °F 75% 30.35 in 10.0 mi Calm Calm - N/A   Overcast
5:55 PM 32.0 °F - 24.8 °F 75% 30.35 in 10.0 mi Calm Calm - N/A   Overcast
6:15 PM 32.0 °F 28.7 °F 23.7 °F 71% 30.35 in 10.0 mi West 3.5 mph - N/A   Mostly Cloudy
6:34 PM 32.0 °F - 23.9 °F 72% 30.34 in 10.0 mi Calm Calm - N/A   Mostly Cloudy
6:55 PM 32.0 °F - 24.3 °F 73% 30.33 in 10.0 mi Calm Calm - N/A   Overcast
7:15 PM 32.0 °F - 25.3 °F 76% 30.33 in 10.0 mi Calm Calm - N/A   Overcast
7:34 PM 32.0 °F - 23.9 °F 72% 30.32 in 10.0 mi Calm Calm - N/A   Overcast
7:55 PM 32.0 °F - 23.9 °F 72% 30.32 in 10.0 mi Calm Calm - N/A   Overcast
8:15 PM 32.0 °F 27.5 °F 23.9 °F 72% 30.31 in 10.0 mi West 4.6 mph - N/A   Overcast
8:34 PM 32.0 °F 26.4 °F 23.9 °F 72% 30.31 in 10.0 mi WSW 5.8 mph - N/A   Overcast
8:55 PM 32.0 °F 26.4 °F 24.1 °F 73% 30.31 in 10.0 mi SW 5.8 mph - N/A   Overcast
9:15 PM 32.0 °F 27.5 °F 24.6 °F 74% 30.31 in 10.0 mi SSW 4.6 mph - N/A   Overcast
9:34 PM 32.0 °F 27.5 °F 25.0 °F 75% 30.29 in 10.0 mi SSW 4.6 mph - N/A   Overcast
9:55 PM 31.8 °F - 25.3 °F 77% 30.28 in 10.0 mi Calm Calm - N/A   Mostly Cloudy
10:15 PM 31.5 °F 25.8 °F 25.5 °F 79% 30.27 in 10.0 mi SSW 5.8 mph - N/A   Scattered Clouds
10:34 PM 31.1 °F 25.4 °F 25.5 °F 80% 30.26 in 10.0 mi South 5.8 mph - N/A   Clear
10:55 PM 30.9 °F 26.2 °F 25.7 °F 81% 30.26 in 10.0 mi SSW 4.6 mph - N/A   Clear
11:15 PM 30.9 °F 26.2 °F 26.1 °F 82% 30.24 in 10.0 mi South 4.6 mph - N/A   Clear
11:34 PM 31.1 °F 26.4 °F 26.4 °F 83% 30.23 in 10.0 mi SSW 4.6 mph - N/A   Mostly Cloudy
11:55 PM 32.2 °F 25.8 °F 20.3 °F 62% 30.23 in 10.0 mi West 6.9 mph - N/A   Overcast